Location: Unspecified
(44.0704°N, 88.6889°W)
Time: 12:38:27
(UTC+01:00)

ISS - Visible Passes

Search period start: 14 November 2018 00:00
Search period end: 24 November 2018 00:00
Orbit: 402 x 409 km, 51.6° (Epoch: 14 November)

Date Brightness Start Highest point End Pass type
(mag) Time Alt. Az. Time Alt. Az. Time Alt. Az.
14 Nov -2.9 11:55:52 38° S 11:55:52 38° S 11:58:21 10° SE visible
15 Nov -0.5 11:06:20 11° SE 11:06:20 11° SE 11:06:28 10° SE visible
15 Nov -1.5 12:39:02 11° SW 12:39:12 11° SW 12:40:18 10° SSW visible
16 Nov -1.1 11:49:35 11° S 11:49:35 11° S 11:49:52 10° S visible
23 Nov -1.3 00:51:19 10° SSE 00:51:30 10° SE 00:51:30 10° SE visible
